Observation Tools

Tulip poplar Photo courtesy of ©2005 Louis-M. Landry.

Tulip poplar (Liriodendron tulipifera)


Also Known As: Tulip tree
Plant Family: Magnolia (Magnoliaceae)
Project BudBurst Plant Group: Deciduous Trees and Shrubs

Identification Hints: The leaves of the tulip poplar have a unique star-like or even tulip like shape and showy orange-yellow flowers similar in shape to tulips.

Did you Know? First Nations used the inner bark medicinally as worming medicine, antiarthritic, cough syrup and cholera remedy. Pioneers hollowed out the massive trunk to make a long, lightweight canoe. One of the chief commercial hardwoods, Tulip Poplar is used for furniture, as well as for crates, toys, musical instruments, and pulpwood. This is a favorite nesting tree for birds and the flowers attract hummingbirds.


Live Map for Tulip poplar

Other years available for viewing:

Below you can view all observations that have been reported in for Tulip poplar (If the map below is empty then there have not been any observations reported.)

Use the navigation buttons on the left to zoom in/out and pan around. Click on each place marker to get detail information about that observation.

Leaf/Needles/Stalk = Leaf/Needles/Stalk Flower = Flower Pollen = Pollen Fruiting = Fruiting Color = Color

--Back to Top--

close help window button

The table below displays all the data that has been submitted to Project BudBurst. By default, the data is sorted by the date on which the phenophase occurred. Clicking the up and down arrows next to each column name allows you to sort on any value. If there have been more than 10 observations submitted, you can choose how many to display at a time using the "Show __ entries" control. You can also page through the data using the previous and next buttons at the bottom right of the table.

The Search box allows you to search all of the data. Searching by date, species, phenophase, etc. is easy—just start typing and the table will immediately change to contain only observations that contain your search phrase. Do you want to see only 2012 observations? Just type "2012" in the search box. Only want to see maples? Enter "Acer." You can combine searches, too! Searching for "acer 2012" will narrow your results to only the maples that were observed in 2012 (assuming that any observations exist, of course).

Once you have your results in the order desired, you can use any of the buttons above the search box to copy the results to the clipboard; save them as a text, or spreadsheet; or even print them from your browser!

Observational data for Tulip poplar:

help button
Date Contributor Common Name Species Phenophase Latitude Longitude Obs#
Sat Feb 16 00:00:00 GMT 2008 rrpgsp Tulip poplar Liriodendron tulipifera First Leaf 33.498000000000000 -86.777900000000000 118
Tue Mar 11 00:00:00 GMT 2008 mastanback Tulip poplar Liriodendron tulipifera First Leaf 35.488800000000000 -80.827500000000000 493
Mon Mar 10 00:00:00 GMT 2008 DRogers@iglou.com Tulip poplar Liriodendron tulipifera First Leaf 38.336100000000000 -85.627500000000000 499
Mon Mar 24 00:00:00 GMT 2008 naturalist Tulip poplar Liriodendron tulipifera First Leaf 35.220000000000000 -80.800000000000000 916
Fri Mar 28 00:00:00 GMT 2008 drhartel Tulip poplar Liriodendron tulipifera First Leaf 34.053600000000000 -83.123100000000000 1005
Sat Mar 29 00:00:00 GMT 2008 aboddie Tulip poplar Liriodendron tulipifera First Leaf 35.098600000000000 -89.783700000000000 1082
Mon Mar 31 00:00:00 GMT 2008 anonymous Tulip poplar Liriodendron tulipifera First Leaf 39.066800000000000 -76.996900000000000 1280
Thu Mar 20 00:00:00 GMT 2008 marshdoc Tulip poplar Liriodendron tulipifera First Leaf 34.263100000000000 -83.744700000000000 1317
Tue Apr 08 00:00:00 GMT 2008 Hillersouth Tulip poplar Liriodendron tulipifera First Leaf 34.785200000000000 -83.933300000000000 1366
Sat Apr 05 00:00:00 GMT 2008 gmdwilcox Tulip poplar Liriodendron tulipifera First Leaf 39.340600000000000 -85.203900000000000 1381
Thu Apr 10 00:00:00 GMT 2008 pepperoni99 Tulip poplar Liriodendron tulipifera First Leaf 38.184700000000000 -84.625500000000000 1504
Thu Apr 10 00:00:00 GMT 2008 Yvonne Orkin Tulip poplar Liriodendron tulipifera First Leaf 38.953900000000000 -75.933100000000000 1677
Thu Mar 27 00:00:00 GMT 2008 anonymous Tulip poplar Liriodendron tulipifera First Leaf 32.239000000000000 -81.451100000000000 2065
Wed Apr 16 00:00:00 GMT 2008 anonymous Tulip poplar Liriodendron tulipifera All Leaves Unfolded 32.239000000000000 -81.451100000000000 2066
Sat Apr 19 00:00:00 GMT 2008 anonymous Tulip poplar Liriodendron tulipifera First Leaf 32.239000000000000 -81.451000000000000 2067
Sat Apr 19 00:00:00 GMT 2008 anonymous Tulip poplar Liriodendron tulipifera First Leaf 32.239000000000000 -81.451000000000000 2068
Fri Mar 07 00:00:00 GMT 2008 clowerpower86 Tulip poplar Liriodendron tulipifera First Leaf 31.559400000000000 -81.595700000000000 2140
Fri Mar 21 00:00:00 GMT 2008 clowerpower86 Tulip poplar Liriodendron tulipifera All Leaves Unfolded 31.559400000000000 -81.595700000000000 2141
Thu Apr 17 00:00:00 GMT 2008 Jingles Tulip poplar Liriodendron tulipifera First Leaf 39.826100000000000 -75.615600000000000 2303
Fri Apr 25 00:00:00 GMT 2008 naturalist Tulip poplar Liriodendron tulipifera All Leaves Unfolded 35.220000000000000 -80.800000000000000 2440
Thu Apr 24 00:00:00 GMT 2008 IlexAcer Tulip poplar Liriodendron tulipifera First Leaf 42.414800000000000 -71.215700000000000 2608
Sun May 04 00:00:00 GMT 2008 Ilse Tulip poplar Liriodendron tulipifera First Leaf 41.582400000000000 -73.901800000000000 2803
Wed Apr 23 00:00:00 GMT 2008 leonard Tulip poplar Liriodendron tulipifera First Leaf 39.984500000000000 -81.150000000000000 3126
Thu Apr 10 00:00:00 GMT 2008 anonymous Tulip poplar Liriodendron tulipifera First Leaf 38.926500000000000 -77.339500000000000 3577
Wed Apr 16 00:00:00 GMT 2008 brroookexd Tulip poplar Liriodendron tulipifera First Leaf 41.138000000000000 -81.864000000000000 3649
Sat Apr 26 00:00:00 GMT 2008 brroookexd Tulip poplar Liriodendron tulipifera All Leaves Unfolded 41.138000000000000 -81.864000000000000 3650
Wed May 14 00:00:00 GMT 2008 brroookexd Tulip poplar Liriodendron tulipifera First Flower 41.138000000000000 -81.864000000000000 3651
Mon May 19 00:00:00 GMT 2008 brroookexd Tulip poplar Liriodendron tulipifera Full Flower 41.138000000000000 -81.864000000000000 3652
Thu May 29 00:00:00 GMT 2008 brroookexd Tulip poplar Liriodendron tulipifera End of Flowering 41.138000000000000 -81.864000000000000 3653
Mon Jun 02 00:00:00 GMT 2008 brroookexd Tulip poplar Liriodendron tulipifera First Ripe Fruit 41.138000000000000 -81.864000000000000 3654
Mon May 05 00:00:00 GMT 2008 cpartain Tulip poplar Liriodendron tulipifera First Flower 39.362200000000000 -76.680500000000000 3805
Mon May 26 00:00:00 GMT 2008 cpartain Tulip poplar Liriodendron tulipifera Full Flower 39.362200000000000 -76.680500000000000 3806
Thu Apr 10 00:00:00 GMT 2008 Jingles Tulip poplar Liriodendron tulipifera All Leaves Unfolded 39.826100000000000 -75.615600000000000 3856
Fri May 16 00:00:00 GMT 2008 Jingles Tulip poplar Liriodendron tulipifera First Flower 39.826100000000000 -75.615600000000000 3857
Mon May 05 00:00:00 GMT 2008 SusannahPrindle Tulip poplar Liriodendron tulipifera First Flower 39.096700000000000 -77.023900000000000 4620
Sun Apr 20 00:00:00 GMT 2008 anonymous Tulip poplar Liriodendron tulipifera First Leaf 40.705300000000000 -79.697100000000000 4843
Mon Apr 28 00:00:00 GMT 2008 anonymous Tulip poplar Liriodendron tulipifera All Leaves Unfolded 40.705300000000000 -79.697100000000000 4844
Thu May 29 00:00:00 GMT 2008 anonymous Tulip poplar Liriodendron tulipifera Full Flower 40.705300000000000 -79.697100000000000 4845
Wed Oct 15 00:00:00 GMT 2008 anonymous Tulip poplar Liriodendron tulipifera First Ripe Fruit 40.705300000000000 -79.697100000000000 4846
Sun Apr 13 00:00:00 GMT 2008 tmdlynch Tulip poplar Liriodendron tulipifera First Leaf 40.348200000000000 -75.286700000000000 4880
Mon Mar 09 00:00:00 GMT 2009 sgriffin@lincolnschools.org Tulip poplar Liriodendron tulipifera First Leaf 32.531400000000000 -92.637900000000000 4962
Tue Mar 10 00:00:00 GMT 2009 creed Tulip poplar Liriodendron tulipifera First Leaf 39.083900000000000 -77.156800000000000 4992
Thu Apr 02 00:00:00 GMT 2009 anonymous Tulip poplar Liriodendron tulipifera First Leaf 38.974800000000000 -77.154200000000000 5438
Sun Apr 05 00:00:00 GMT 2009 anonymous Tulip poplar Liriodendron tulipifera All Leaves Unfolded 38.974800000000000 -77.154200000000000 5439
Thu Apr 02 00:00:00 GMT 2009 mdunn Tulip poplar Liriodendron tulipifera First Leaf 35.757100000000000 -79.107000000000000 5441
Sat Apr 11 00:00:00 GMT 2009 sigridmoore Tulip poplar Liriodendron tulipifera First Flower 42.497300000000000 -83.126200000000000 5605
Fri Apr 10 00:00:00 GMT 2009 fsanford Tulip poplar Liriodendron tulipifera First Leaf 38.946800000000000 -77.070500000000000 5678
Wed Apr 15 00:00:00 GMT 2009 Wildegenes Tulip poplar Liriodendron tulipifera First Leaf 38.899100000000000 -77.098400000000000 5748
Wed Apr 15 00:00:00 GMT 2009 Wildegenes Tulip poplar Liriodendron tulipifera All Leaves Unfolded 38.899100000000000 -77.098400000000000 5749
Fri Apr 10 00:00:00 GMT 2009 creed Tulip poplar Liriodendron tulipifera All Leaves Unfolded 39.083900000000000 -77.156800000000000 5755
Wed Apr 15 00:00:00 GMT 2009 climbthemountain@gmail.com Tulip poplar Liriodendron tulipifera First Leaf 40.746900000000000 -74.916200000000000 5780
Mon Apr 06 00:00:00 GMT 2009 srulison Tulip poplar Liriodendron tulipifera First Leaf 37.540000000000000 -75.920000000000000 5818
Thu Apr 09 00:00:00 GMT 2009 srulison Tulip poplar Liriodendron tulipifera All Leaves Unfolded 37.540000000000000 -75.920000000000000 5819
Fri Mar 13 00:00:00 GMT 2009 anonymous Tulip poplar Liriodendron tulipifera First Flower 39.160000000000000 -86.490000000000000 5906
Fri Mar 13 00:00:00 GMT 2009 kdevore Tulip poplar Liriodendron tulipifera First Flower 39.160000000000000 -86.490000000000000 5911
Fri Apr 03 00:00:00 GMT 2009 anonymous Tulip poplar Liriodendron tulipifera First Leaf 39.140000000000000 -86.620000000000000 6032
Sat Mar 07 00:00:00 GMT 2009 anonymous Tulip poplar Liriodendron tulipifera First Leaf 39.164300000000000 -86.526900000000000 6200
Sat Mar 28 00:00:00 GMT 2009 anonymous Tulip poplar Liriodendron tulipifera All Leaves Unfolded 39.164300000000000 -86.526900000000000 6201
Sun Mar 15 00:00:00 GMT 2009 anonymous Tulip poplar Liriodendron tulipifera First Flower 39.164300000000000 -86.526900000000000 6202
Sat Apr 04 00:00:00 GMT 2009 anonymous Tulip poplar Liriodendron tulipifera Full Flower 39.164300000000000 -86.526900000000000 6203
Mon Apr 06 00:00:00 GMT 2009 sjrulison Tulip poplar Liriodendron tulipifera First Leaf 37.545100000000000 -75.927600000000000 6551
Thu Apr 16 00:00:00 GMT 2009 sjrulison Tulip poplar Liriodendron tulipifera All Leaves Unfolded 37.545100000000000 -75.927600000000000 6552
Mon Mar 09 00:00:00 GMT 2009 anonymous Tulip poplar Liriodendron tulipifera First Leaf 39.180000000000000 -86.550000000000000 6750
Mon Apr 06 00:00:00 GMT 2009 anonymous Tulip poplar Liriodendron tulipifera All Leaves Unfolded 39.180000000000000 -86.550000000000000 6751
Fri May 15 00:00:00 GMT 2009 rg Tulip poplar Liriodendron tulipifera First Flower 39.671500000000000 -82.541200000000000 7619
Sun Mar 29 00:00:00 GMT 2009 anonymous Tulip poplar Liriodendron tulipifera First Leaf 35.057900000000000 -80.822000000000000 7757
Thu Apr 30 00:00:00 GMT 2009 climbthemountain@gmail.com Tulip poplar Liriodendron tulipifera All Leaves Unfolded 40.746900000000000 -74.916200000000000 8002
Fri May 15 00:00:00 GMT 2009 climbthemountain@gmail.com Tulip poplar Liriodendron tulipifera First Flower 40.746900000000000 -74.916200000000000 8003
Sun May 24 00:00:00 GMT 2009 climbthemountain@gmail.com Tulip poplar Liriodendron tulipifera Full Flower 40.746900000000000 -74.916200000000000 8004
Thu Apr 09 00:00:00 GMT 2009 KShaw Tulip poplar Liriodendron tulipifera First Leaf 38.926500000000000 -77.339500000000000 8062
Sun Apr 19 00:00:00 GMT 2009 KShaw Tulip poplar Liriodendron tulipifera All Leaves Unfolded 38.926500000000000 -77.339500000000000 8063
Fri Apr 24 00:00:00 GMT 2009 KShaw Tulip poplar Liriodendron tulipifera First Flower 38.926500000000000 -77.339500000000000 8064
Mon May 04 00:00:00 GMT 2009 KShaw Tulip poplar Liriodendron tulipifera Full Flower 38.926500000000000 -77.339500000000000 8065
Sun May 10 00:00:00 GMT 2009 KShaw Tulip poplar Liriodendron tulipifera End of Flowering 38.926500000000000 -77.339500000000000 8066
Sat Apr 25 00:00:00 GMT 2009 joenesgarden Tulip poplar Liriodendron tulipifera First Leaf 41.452700000000000 -72.375700000000000 8217
Sun May 31 00:00:00 GMT 2009 joenesgarden Tulip poplar Liriodendron tulipifera First Flower 41.452700000000000 -72.375700000000000 8218
Tue Jun 09 00:00:00 GMT 2009 climbthemountain@gmail.com Tulip poplar Liriodendron tulipifera End of Flowering 40.746900000000000 -74.916200000000000 8285
Fri Oct 23 00:00:00 GMT 2009 centralNY Tulip poplar Liriodendron tulipifera 50% Color 43.041000000000000 -76.212900000000000 8834
Thu Nov 05 00:00:00 GMT 2009 anonymous Tulip poplar Liriodendron tulipifera 50% Color 35.815400000000000 -86.410200000000000 8900
Tue Nov 03 00:00:00 GMT 2009 KaitlinBrown11 Tulip poplar Liriodendron tulipifera 50% Leaf Fall 35.834500000000000 -86.447900000000000 8899
Wed Nov 04 00:00:00 GMT 2009 KaitlinBrown11 Tulip poplar Liriodendron tulipifera 50% Color 35.834500000000000 -86.447900000000000 8913
Sun Mar 29 00:00:00 GMT 2009 anonymous Tulip poplar Liriodendron tulipifera First Leaf 39.066800000000000 -76.996900000000000 9051
Sat Apr 04 00:00:00 GMT 2009 anonymous Tulip poplar Liriodendron tulipifera All Leaves Unfolded 39.066800000000000 -76.996900000000000 9052
Mon May 04 00:00:00 GMT 2009 anonymous Tulip poplar Liriodendron tulipifera First Flower 39.066800000000000 -76.996900000000000 9053
Tue May 12 00:00:00 GMT 2009 anonymous Tulip poplar Liriodendron tulipifera Full Flower 39.066800000000000 -76.996900000000000 9054
Wed Jun 03 00:00:00 GMT 2009 anonymous Tulip poplar Liriodendron tulipifera End of Flowering 39.066800000000000 -76.996900000000000 9055
Thu Oct 08 00:00:00 GMT 2009 anonymous Tulip poplar Liriodendron tulipifera First Ripe Fruit 39.066800000000000 -76.996900000000000 9056
Thu Oct 22 00:00:00 GMT 2009 anonymous Tulip poplar Liriodendron tulipifera 50% Color 39.066800000000000 -76.996900000000000 9057
Wed Mar 17 00:00:00 GMT 2010 anonymous Tulip poplar Liriodendron tulipifera First Leaf 41.725500000000000 -87.674500000000000 9243
Tue Mar 23 00:00:00 GMT 2010 Jessica Tulip poplar Liriodendron tulipifera First Leaf 38.870700000000000 -77.255300000000000 9252
Thu Mar 11 00:00:00 GMT 2010 anonymous Tulip poplar Liriodendron tulipifera First Leaf 39.170000000000000 -86.534900000000000 9468
Wed Apr 14 00:00:00 GMT 2010 Rich Tulip poplar Liriodendron tulipifera First Leaf 40.002400000000000 -80.650600000000000 9608
Tue Mar 02 00:00:00 GMT 2010 learnlivehope247 Tulip poplar Liriodendron tulipifera First Leaf 37.557100000000000 -79.085400000000000 10028
Tue Mar 23 00:00:00 GMT 2010 learnlivehope247 Tulip poplar Liriodendron tulipifera All Leaves Unfolded 37.557100000000000 -79.085400000000000 10029
Tue Apr 06 00:00:00 GMT 2010 learnlivehope247 Tulip poplar Liriodendron tulipifera First Flower 37.557100000000000 -79.085400000000000 10030
Sun Apr 18 00:00:00 GMT 2010 centralNY Tulip poplar Liriodendron tulipifera First Leaf 43.041000000000000 -76.212900000000000 10259
Sat Apr 17 00:00:00 GMT 2010 Rich Tulip poplar Liriodendron tulipifera All Leaves Unfolded 40.002400000000000 -80.650600000000000 10247
Mon Mar 29 00:00:00 GMT 2010 anonymous Tulip poplar Liriodendron tulipifera First Leaf 35.108900000000000 -80.744300000000000 10601
Thu Apr 01 00:00:00 GMT 2010 anonymous Tulip poplar Liriodendron tulipifera All Leaves Unfolded 35.108900000000000 -80.744300000000000 10602
Mon May 03 00:00:00 GMT 2010 anonymous Tulip poplar Liriodendron tulipifera First Flower 35.108900000000000 -80.744300000000000 10603
Tue May 04 00:00:00 GMT 2010 anonymous Tulip poplar Liriodendron tulipifera Full Flower 35.108900000000000 -80.744300000000000 10604
Mon Mar 29 00:00:00 GMT 2010 KShaw Tulip poplar Liriodendron tulipifera First Leaf 38.926500000000000 -77.339500000000000 10998
Thu Apr 01 00:00:00 GMT 2010 KShaw Tulip poplar Liriodendron tulipifera All Leaves Unfolded 38.926500000000000 -77.339500000000000 10999
Mon Apr 26 00:00:00 GMT 2010 KShaw Tulip poplar Liriodendron tulipifera First Flower 38.926500000000000 -77.339500000000000 11000
Thu Apr 29 00:00:00 GMT 2010 KShaw Tulip poplar Liriodendron tulipifera Full Flower 38.926500000000000 -77.339500000000000 11001
Mon May 17 00:00:00 GMT 2010 KShaw Tulip poplar Liriodendron tulipifera End of Flowering 38.926500000000000 -77.339500000000000 11002
Sun Mar 21 00:00:00 GMT 2010 SusannahPrindle Tulip poplar Liriodendron tulipifera First Leaf 39.096700000000000 -77.023900000000000 11063
Thu Mar 25 00:00:00 GMT 2010 SusannahPrindle Tulip poplar Liriodendron tulipifera All Leaves Unfolded 39.096700000000000 -77.023900000000000 11064
Fri Apr 30 00:00:00 GMT 2010 SusannahPrindle Tulip poplar Liriodendron tulipifera First Flower 39.096700000000000 -77.023900000000000 11065
Sat Apr 03 00:00:00 GMT 2010 SusannahPrindle Tulip poplar Liriodendron tulipifera Full Flower 39.096700000000000 -77.023900000000000 11066
Mon May 31 00:00:00 GMT 2010 SusannahPrindle Tulip poplar Liriodendron tulipifera End of Flowering 39.096700000000000 -77.023900000000000 11067
Sun Apr 04 00:00:00 GMT 2010 srulison Tulip poplar Liriodendron tulipifera First Leaf 37.540000000000000 -75.920000000000000 11188
Wed Apr 14 00:00:00 GMT 2010 srulison Tulip poplar Liriodendron tulipifera All Leaves Unfolded 37.540000000000000 -75.920000000000000 11189
Sun Mar 21 00:00:00 GMT 2010 SusannahPrindle Tulip poplar Liriodendron tulipifera First Leaf 39.096700000000000 -77.023900000000000 11651
Thu Mar 25 00:00:00 GMT 2010 SusannahPrindle Tulip poplar Liriodendron tulipifera All Leaves Unfolded 39.096700000000000 -77.023900000000000 11652
Fri Apr 30 00:00:00 GMT 2010 SusannahPrindle Tulip poplar Liriodendron tulipifera First Flower 39.096700000000000 -77.023900000000000 11653
Mon May 03 00:00:00 GMT 2010 SusannahPrindle Tulip poplar Liriodendron tulipifera Full Flower 39.096700000000000 -77.023900000000000 11654
Mon May 31 00:00:00 GMT 2010 SusannahPrindle Tulip poplar Liriodendron tulipifera End of Flowering 39.096700000000000 -77.023900000000000 11655
Tue Jul 27 00:00:00 GMT 2010 SusannahPrindle Tulip poplar Liriodendron tulipifera First Ripe Fruit 39.096700000000000 -77.023900000000000 11656
Mon Oct 25 00:00:00 GMT 2010 SusannahPrindle Tulip poplar Liriodendron tulipifera 50% Color 39.096700000000000 -77.023900000000000 11657
Sun Nov 07 00:00:00 GMT 2010 SusannahPrindle Tulip poplar Liriodendron tulipifera 50% Leaf Fall 39.096700000000000 -77.023900000000000 11658
Mon Mar 29 00:00:00 GMT 2010 SusannahPrindle Tulip poplar Liriodendron tulipifera First Leaf 39.096700000000000 -77.023900000000000 11671
Fri Apr 02 00:00:00 GMT 2010 SusannahPrindle Tulip poplar Liriodendron tulipifera All Leaves Unfolded 39.096700000000000 -77.023900000000000 11672
Wed May 12 00:00:00 GMT 2010 SusannahPrindle Tulip poplar Liriodendron tulipifera Full Flower 39.096700000000000 -77.023900000000000 11673
Wed Oct 27 00:00:00 GMT 2010 SusannahPrindle Tulip poplar Liriodendron tulipifera 50% Color 39.096700000000000 -77.023900000000000 11674
Mon Nov 08 00:00:00 GMT 2010 SusannahPrindle Tulip poplar Liriodendron tulipifera 50% Leaf Fall 39.096700000000000 -77.023900000000000 11675
Tue Feb 08 00:00:00 GMT 2011 hwiebke Tulip poplar Liriodendron tulipifera First Leaf 39.130000000000000 -86.350000000000000 11693
Sun Mar 20 00:00:00 GMT 2011 moranev Tulip poplar Liriodendron tulipifera First Leaf 35.920300000000000 -84.031600000000000 11770
Thu Apr 07 00:00:00 GMT 2011 Dennis2sheds Tulip poplar Liriodendron tulipifera First Leaf 34.717100000000000 -83.980100000000000 11869
Fri Apr 08 00:00:00 GMT 2011 kyyork Tulip poplar Liriodendron tulipifera First Leaf 39.171000000000000 -86.512000000000000 11959
Fri Apr 08 00:00:00 GMT 2011 kyyork Tulip poplar Liriodendron tulipifera First Flower 39.171000000000000 -86.512000000000000 11960
Fri Apr 08 00:00:00 GMT 2011 kyyork Tulip poplar Liriodendron tulipifera Full Flower 39.171000000000000 -86.512000000000000 11961
Fri Apr 08 00:00:00 GMT 2011 kyyork Tulip poplar Liriodendron tulipifera 50% Color 39.171000000000000 -86.512000000000000 11962
Mon Apr 04 00:00:00 GMT 2011 hwiebke Tulip poplar Liriodendron tulipifera First Leaf 39.130000000000000 -86.350000000000000 12118
Wed Apr 13 00:00:00 GMT 2011 hwiebke Tulip poplar Liriodendron tulipifera All Leaves Unfolded 39.130000000000000 -86.350000000000000 12119
Sat Apr 09 00:00:00 GMT 2011 ausima Tulip poplar Liriodendron tulipifera Leaves Unfolding (Early) 39.018800000000000 -77.072500000000000 12147
Mon Apr 18 00:00:00 GMT 2011 ausima Tulip poplar Liriodendron tulipifera Leaves Unfolding (Middle) 39.018800000000000 -77.072500000000000 12148
Mon Apr 18 00:00:00 GMT 2011 nroney1 Tulip poplar Liriodendron tulipifera First Flower 35.045000000000000 -92.169200000000000 12201
Wed Apr 27 00:00:00 GMT 2011 nroney1 Tulip poplar Liriodendron tulipifera Full Flower 35.045000000000000 -92.169200000000000 12238
Sun May 01 00:00:00 GMT 2011 ausima Tulip poplar Liriodendron tulipifera Flowers (Middle) 39.018800000000000 -77.072500000000000 12267
Sat Apr 23 00:00:00 GMT 2011 ausima Tulip poplar Liriodendron tulipifera Flowers (Early) 39.018800000000000 -77.072500000000000 12265
Fri May 13 00:00:00 GMT 2011 nroney1 Tulip poplar Liriodendron tulipifera First Ripe Fruit 35.045000000000000 -92.169200000000000 12471
Wed Apr 06 00:00:00 GMT 2011 KShaw Tulip poplar Liriodendron tulipifera First Leaf 38.926500000000000 -77.339500000000000 12986
Thu Apr 14 00:00:00 GMT 2011 KShaw Tulip poplar Liriodendron tulipifera All Leaves Unfolded 38.926500000000000 -77.339500000000000 12987
Thu May 05 00:00:00 GMT 2011 KShaw Tulip poplar Liriodendron tulipifera First Flower 38.926500000000000 -77.339500000000000 12988
Tue May 10 00:00:00 GMT 2011 KShaw Tulip poplar Liriodendron tulipifera Full Flower 38.926500000000000 -77.339500000000000 12989
Tue Mar 22 00:00:00 GMT 2011 SusannahPrindle Tulip poplar Liriodendron tulipifera First Leaf 39.096700000000000 -77.023900000000000 13065
Thu Mar 31 00:00:00 GMT 2011 SusannahPrindle Tulip poplar Liriodendron tulipifera All Leaves Unfolded 39.096700000000000 -77.023900000000000 13066
Thu May 12 00:00:00 GMT 2011 SusannahPrindle Tulip poplar Liriodendron tulipifera First Flower 39.096700000000000 -77.023900000000000 13067
Sun May 22 00:00:00 GMT 2011 SusannahPrindle Tulip poplar Liriodendron tulipifera Full Flower 39.096700000000000 -77.023900000000000 13068
Wed Sep 21 00:00:00 GMT 2011 dennisw Tulip poplar Liriodendron tulipifera Flowers (Late) 34.069400000000000 -118.442000000000000 13369
Sat Mar 26 00:00:00 GMT 2011 srulison Tulip poplar Liriodendron tulipifera First Leaf 37.540000000000000 -75.920000000000000 13645
Wed Apr 06 00:00:00 GMT 2011 srulison Tulip poplar Liriodendron tulipifera All Leaves Unfolded 37.540000000000000 -75.920000000000000 13646
Tue Oct 18 00:00:00 GMT 2011 katherinefogarty@comcast.net_EnvSci2011_reporter5 Tulip poplar Liriodendron tulipifera All Leaves Unfolded 42.315800000000000 -71.083200000000000 13915
Wed Nov 02 00:00:00 GMT 2011 katherinefogarty@comcast.net_EnvSci2011_reporter5 Tulip poplar Liriodendron tulipifera 50% Color 42.315800000000000 -71.083200000000000 13916
Wed Nov 09 00:00:00 GMT 2011 katherinefogarty@comcast.net_EnvSci2011_reporter5 Tulip poplar Liriodendron tulipifera 50% Leaf Fall 42.315800000000000 -71.083200000000000 13917
Sun Oct 23 00:00:00 GMT 2011 SusannahPrindle Tulip poplar Liriodendron tulipifera Full Fruiting 39.096700000000000 -77.023900000000000 13949
Wed Oct 26 00:00:00 GMT 2011 SusannahPrindle Tulip poplar Liriodendron tulipifera 50% Color 39.096700000000000 -77.023900000000000 13950
Sat Nov 12 00:00:00 GMT 2011 SusannahPrindle Tulip poplar Liriodendron tulipifera 50% Leaf Fall 39.096700000000000 -77.023900000000000 13951
Sat Feb 25 00:00:00 GMT 2012 sonyaguidry@yahoo.com Tulip poplar Liriodendron tulipifera First Leaf 29.042400000000000 -80.939500000000000 14123
Tue Apr 05 00:00:00 GMT 2011 SusannahPrindle Tulip poplar Liriodendron tulipifera First Leaf 39.066800000000000 -76.996900000000000 14139
Thu Apr 14 00:00:00 GMT 2011 SusannahPrindle Tulip poplar Liriodendron tulipifera All Leaves Unfolded 39.066800000000000 -76.996900000000000 14140
Thu Oct 27 00:00:00 GMT 2011 SusannahPrindle Tulip poplar Liriodendron tulipifera 50% Color 39.066800000000000 -76.996900000000000 14142
Tue Nov 08 00:00:00 GMT 2011 SusannahPrindle Tulip poplar Liriodendron tulipifera 50% Leaf Fall 39.066800000000000 -76.996900000000000 14143
Mon May 02 00:00:00 GMT 2011 SusannahPrindle Tulip poplar Liriodendron tulipifera Full Flower 39.066800000000000 -76.996900000000000 14141
Sun Mar 11 00:00:00 GMT 2012 shelleyhr Tulip poplar Liriodendron tulipifera Leaves Unfolding (Early) 41.597400000000000 -85.874600000000000 14205
Wed Mar 14 00:00:00 GMT 2012 prairieridge Tulip poplar Liriodendron tulipifera Leaves Unfolding (Early) 35.810100000000000 -78.715100000000000 14254
Fri Apr 29 00:00:00 GMT 2011 joenesgarden Tulip poplar Liriodendron tulipifera First Leaf 41.452700000000000 -72.375700000000000 14383
Fri May 06 00:00:00 GMT 2011 joenesgarden Tulip poplar Liriodendron tulipifera All Leaves Unfolded 41.452700000000000 -72.375700000000000 14384
Wed May 25 00:00:00 GMT 2011 joenesgarden Tulip poplar Liriodendron tulipifera First Flower 41.452700000000000 -72.375700000000000 14385
Fri Mar 23 00:00:00 GMT 2012 Steve Benedict Tulip poplar Liriodendron tulipifera First Leaf 43.022500000000000 -77.060200000000000 14450
Tue Mar 20 00:00:00 GMT 2012 MikeB45 Tulip poplar Liriodendron tulipifera First Leaf 39.640700000000000 -78.089600000000000 14457
Sun Mar 25 00:00:00 GMT 2012 MikeB45 Tulip poplar Liriodendron tulipifera All Leaves Unfolded 39.640700000000000 -78.089600000000000 14458
Sun Mar 25 00:00:00 GMT 2012 Dennis2sheds Tulip poplar Liriodendron tulipifera Leaves Unfolding (Early) 34.717100000000000 -83.980100000000000 14500
Mon Mar 19 00:00:00 GMT 2012 tuckerasso Tulip poplar Liriodendron tulipifera First Leaf 37.231600000000000 -76.663600000000000 14700
Tue Mar 27 00:00:00 GMT 2012 tuckerasso Tulip poplar Liriodendron tulipifera All Leaves Unfolded 37.231600000000000 -76.663600000000000 14701
Tue Mar 20 00:00:00 GMT 2012 mebrown Tulip poplar Liriodendron tulipifera First Leaf 36.085700000000000 -79.501200000000000 14726
Tue Mar 27 00:00:00 GMT 2012 mebrown Tulip poplar Liriodendron tulipifera All Leaves Unfolded 36.085700000000000 -79.501200000000000 14727
Sat Mar 31 00:00:00 GMT 2012 tuckerasso Tulip poplar Liriodendron tulipifera First Flower 37.231600000000000 -76.663600000000000 14743
Tue Apr 03 00:00:00 GMT 2012 tuckerasso Tulip poplar Liriodendron tulipifera Full Flower 37.231600000000000 -76.663600000000000 14744
Sat Mar 31 00:00:00 GMT 2012 MickeyJo Tulip poplar Liriodendron tulipifera First Flower 35.949100000000000 -79.050500000000000 14717
Sun Apr 08 00:00:00 GMT 2012 MickeyJo Tulip poplar Liriodendron tulipifera Full Flower 35.949100000000000 -79.050500000000000 14842
Tue Apr 17 00:00:00 GMT 2012 lduncan Tulip poplar Liriodendron tulipifera Leaves Unfolding (Middle) 34.674100000000000 -82.822800000000000 15192
Fri Apr 27 00:00:00 GMT 2012 baddelson Tulip poplar Liriodendron tulipifera Full Flower 38.571400000000000 -90.376400000000000 15302
Sat Apr 28 00:00:00 GMT 2012 Georgew Tulip poplar Liriodendron tulipifera Leaves Unfolding (Late) 42.612400000000000 -70.848400000000000 15331
Wed May 02 00:00:00 GMT 2012 katherinefogarty@comcast.net_EnvSci2011_reporter5 Tulip poplar Liriodendron tulipifera 50% Color 42.315800000000000 -71.083200000000000 15677
Wed Mar 21 00:00:00 GMT 2012 katherinefogarty@comcast.net_EnvSci2011_reporter5 Tulip poplar Liriodendron tulipifera Full Flower 42.315800000000000 -71.083200000000000 15674
Wed Apr 04 00:00:00 GMT 2012 katherinefogarty@comcast.net_EnvSci2011_reporter5 Tulip poplar Liriodendron tulipifera First Ripe Fruit 42.315800000000000 -71.083200000000000 15675
Thu Nov 15 00:00:00 GMT 2012 katherinefogarty@comcast.net_EnvSci2011_reporter5 Tulip poplar Liriodendron tulipifera First Flower 42.315800000000000 -71.083200000000000 15673
Thu Mar 08 00:00:00 GMT 2012 katherinefogarty@comcast.net_EnvSci2011_reporter5 Tulip poplar Liriodendron tulipifera All Leaves Unfolded 42.315800000000000 -71.083200000000000 15672
Thu Oct 25 00:00:00 GMT 2012 katherinefogarty@comcast.net_EnvSci2011_reporter5 Tulip poplar Liriodendron tulipifera First Leaf 42.315800000000000 -71.083200000000000 15671
Wed Apr 11 00:00:00 GMT 2012 katherinefogarty@comcast.net_EnvSci2011_reporter5 Tulip poplar Liriodendron tulipifera Full Fruiting 42.315800000000000 -71.083200000000000 15678
Wed Apr 25 00:00:00 GMT 2012 katherinefogarty@comcast.net_EnvSci2011_reporter5 Tulip poplar Liriodendron tulipifera 50% Leaf Fall 42.315800000000000 -71.083200000000000 15676
Fri Mar 16 00:00:00 GMT 2012 SusannahPrindle Tulip poplar Liriodendron tulipifera First Leaf 39.096700000000000 -77.023900000000000 16209
Tue Mar 20 00:00:00 GMT 2012 SusannahPrindle Tulip poplar Liriodendron tulipifera All Leaves Unfolded 39.096700000000000 -77.023900000000000 16210
Tue Apr 17 00:00:00 GMT 2012 SusannahPrindle Tulip poplar Liriodendron tulipifera First Flower 39.096700000000000 -77.023900000000000 16211
Sat Mar 17 00:00:00 GMT 2012 SusannahPrindle Tulip poplar Liriodendron tulipifera First Leaf 39.066800000000000 -76.996900000000000 16219
Sat Mar 24 00:00:00 GMT 2012 SusannahPrindle Tulip poplar Liriodendron tulipifera All Leaves Unfolded 39.066800000000000 -76.996900000000000 16220
Sun Apr 22 00:00:00 GMT 2012 SusannahPrindle Tulip poplar Liriodendron tulipifera First Flower 39.066800000000000 -76.996900000000000 16221
Sun Apr 29 00:00:00 GMT 2012 SusannahPrindle Tulip poplar Liriodendron tulipifera Full Flower 39.066800000000000 -76.996900000000000 16222
Wed Aug 29 00:00:00 GMT 2012 RangerJean Tulip poplar Liriodendron tulipifera All Leaves Unfolded 42.383100000000000 -71.142700000000000 16432
Tue Aug 28 00:00:00 GMT 2012 macburst Tulip poplar Liriodendron tulipifera Fruit (Middle) 41.847400000000000 -79.139300000000000 16433
Tue Sep 04 00:00:00 GMT 2012 brendan.butash Tulip poplar Liriodendron tulipifera Leaves Changing Color (Early) 42.000000000000000 -83.000000000000000 16446
Wed Sep 05 00:00:00 GMT 2012 brendan.butash Tulip poplar Liriodendron tulipifera Leaves Changing Color (Early) 42.000000000000000 -83.000000000000000 16534
Wed Sep 05 00:00:00 GMT 2012 mari Tulip poplar Liriodendron tulipifera Fruit (Late) 35.592100000000000 -84.084200000000000 16527
Thu Sep 13 00:00:00 GMT 2012 mari Tulip poplar Liriodendron tulipifera Leaves Changing Color (Early) 35.592100000000000 -84.084200000000000 16594
Fri Sep 14 00:00:00 GMT 2012 brooke_michelle Tulip poplar Liriodendron tulipifera 50% Color 34.620000000000000 -83.050000000000000 16659
Fri Sep 14 00:00:00 GMT 2012 brooke_michelle Tulip poplar Liriodendron tulipifera 50% Leaf Fall 34.620000000000000 -83.050000000000000 16660
Fri Sep 14 00:00:00 GMT 2012 brooke_hope Tulip poplar Liriodendron tulipifera 50% Color 34.610000000000000 -83.050000000000000 16661
Fri Sep 14 00:00:00 GMT 2012 brooke_hope Tulip poplar Liriodendron tulipifera 50% Leaf Fall 34.610000000000000 -83.050000000000000 16662
Fri Sep 14 00:00:00 GMT 2012 sterlinhaymon Tulip poplar Liriodendron tulipifera 50% Color 34.600000000000000 -83.050000000000000 16663
Fri Sep 14 00:00:00 GMT 2012 zachpcollins@hotmail.com Tulip poplar Liriodendron tulipifera 50% Color 34.620000000000000 -83.050000000000000 16654
Fri Sep 14 00:00:00 GMT 2012 zachpcollins@hotmail.com Tulip poplar Liriodendron tulipifera 50% Leaf Fall 34.620000000000000 -83.050000000000000 16655
Fri Sep 14 00:00:00 GMT 2012 jaronlivingston Tulip poplar Liriodendron tulipifera 50% Color 39.600000000000000 -83.050000000000000 16668
Fri Sep 14 00:00:00 GMT 2012 jaronlivingston Tulip poplar Liriodendron tulipifera 50% Leaf Fall 39.600000000000000 -83.050000000000000 16669
Fri Sep 14 00:00:00 GMT 2012 zachpcollins@hotmail.com Tulip poplar Liriodendron tulipifera 50% Color 34.620000000000000 -83.050000000000000 16652
Fri Sep 14 00:00:00 GMT 2012 zachpcollins@hotmail.com Tulip poplar Liriodendron tulipifera 50% Leaf Fall 34.620000000000000 -83.050000000000000 16653
Tue Sep 18 00:00:00 GMT 2012 JennyOwens Tulip poplar Liriodendron tulipifera Full Fruiting 34.610000000000000 -83.050000000000000 16635
Tue Sep 18 00:00:00 GMT 2012 3cddriver Tulip poplar Liriodendron tulipifera Leaves Changing Color (Early) 34.620000000000000 -83.050000000000000 16646
Fri Sep 14 00:00:00 GMT 2012 4hrluker Tulip poplar Liriodendron tulipifera 50% Color 36.220000000000000 -83.060000000000000 16637
Tue Sep 18 00:00:00 GMT 2012 3cddriver Tulip poplar Liriodendron tulipifera Leaves Unfolding (Early) 39.984700000000000 -105.268000000000000 16638
Fri Sep 14 00:00:00 GMT 2012 wesley Tulip poplar Liriodendron tulipifera 50% Leaf Fall 34.620000000000000 -83.050000000000000 16643
Fri Sep 14 00:00:00 GMT 2012 5caholbrooks Tulip poplar Liriodendron tulipifera 50% Leaf Fall 34.620000000000000 -83.050000000000000 16644
Fri Sep 14 00:00:00 GMT 2012 4LTWhitman Tulip poplar Liriodendron tulipifera Leaves Changing Color (Early) 34.620000000000000 -83.050000000000000 16651
Tue Sep 18 00:00:00 GMT 2012 3cddriver Tulip poplar Liriodendron tulipifera Leaves Unfolding (Early) 39.984700000000000 -105.268000000000000 16639
Fri Sep 14 00:00:00 GMT 2012 5zbhunter Tulip poplar Liriodendron tulipifera Leaves Changing Color (Early) 34.620000000000000 -83.050000000000000 16645
Thu Sep 13 00:00:00 GMT 2012 katelan cockman Tulip poplar Liriodendron tulipifera 50% Color 34.610000000000000 -83.050000000000000 16673
Thu Sep 13 00:00:00 GMT 2012 katelan cockman Tulip poplar Liriodendron tulipifera 50% Leaf Fall 34.610000000000000 -83.050000000000000 16674
Thu Sep 13 00:00:00 GMT 2012 cecilcarnes Tulip poplar Liriodendron tulipifera 50% Color 34.610000000000000 -83.050000000000000 16675
Thu Sep 13 00:00:00 GMT 2012 cecilcarnes Tulip poplar Liriodendron tulipifera 50% Leaf Fall 34.610000000000000 -83.050000000000000 16676
Tue Sep 11 00:00:00 GMT 2012 brianna7frady Tulip poplar Liriodendron tulipifera 50% Color 34.600000000000000 -83.100000000000000 16720
Tue Sep 11 00:00:00 GMT 2012 brianna7frady Tulip poplar Liriodendron tulipifera 50% Leaf Fall 34.600000000000000 -83.100000000000000 16721
Sat Jan 07 00:00:00 GMT 2012 kennedy smith Tulip poplar Liriodendron tulipifera First Leaf 34.620000000000000 -83.050000000000000 16677
Sat Jan 14 00:00:00 GMT 2012 kennedy smith Tulip poplar Liriodendron tulipifera All Leaves Unfolded 34.620000000000000 -83.050000000000000 16678
Thu Jan 19 00:00:00 GMT 2012 kennedy smith Tulip poplar Liriodendron tulipifera First Flower 34.620000000000000 -83.050000000000000 16679
Fri Feb 24 00:00:00 GMT 2012 kennedy smith Tulip poplar Liriodendron tulipifera Full Flower 34.620000000000000 -83.050000000000000 16680
Sun Mar 25 00:00:00 GMT 2012 kennedy smith Tulip poplar Liriodendron tulipifera First Ripe Fruit 34.620000000000000 -83.050000000000000 16681
Tue Apr 10 00:00:00 GMT 2012 kennedy smith Tulip poplar Liriodendron tulipifera Full Fruiting 34.620000000000000 -83.050000000000000 16682
Sat Sep 15 00:00:00 GMT 2012 kennedy smith Tulip poplar Liriodendron tulipifera 50% Color 34.620000000000000 -83.050000000000000 16683
Tue Sep 25 00:00:00 GMT 2012 kennedy smith Tulip poplar Liriodendron tulipifera 50% Leaf Fall 34.620000000000000 -83.050000000000000 16684
Sun Jan 01 00:00:00 GMT 2012 westoak2014 Tulip poplar Liriodendron tulipifera First Leaf 34.620000000000000 -83.050000000000000 16702
Thu Feb 02 00:00:00 GMT 2012 westoak2014 Tulip poplar Liriodendron tulipifera All Leaves Unfolded 34.620000000000000 -83.050000000000000 16703
Sat Mar 03 00:00:00 GMT 2012 westoak2014 Tulip poplar Liriodendron tulipifera First Flower 34.620000000000000 -83.050000000000000 16704
Wed Apr 04 00:00:00 GMT 2012 westoak2014 Tulip poplar Liriodendron tulipifera Full Flower 34.620000000000000 -83.050000000000000 16705
Sat May 05 00:00:00 GMT 2012 westoak2014 Tulip poplar Liriodendron tulipifera First Ripe Fruit 34.620000000000000 -83.050000000000000 16706
Wed Jun 06 00:00:00 GMT 2012 westoak2014 Tulip poplar Liriodendron tulipifera Full Fruiting 34.620000000000000 -83.050000000000000 16707
Sat Jul 07 00:00:00 GMT 2012 westoak2014 Tulip poplar Liriodendron tulipifera 50% Color 34.620000000000000 -83.050000000000000 16708
Wed Aug 08 00:00:00 GMT 2012 westoak2014 Tulip poplar Liriodendron tulipifera 50% Leaf Fall 34.620000000000000 -83.050000000000000 16709
Wed Feb 01 00:00:00 GMT 2012 Colton Hare Tulip poplar Liriodendron tulipifera First Leaf 34.620000000000000 -83.050000000000000 16685
Sun Feb 12 00:00:00 GMT 2012 Colton Hare Tulip poplar Liriodendron tulipifera All Leaves Unfolded 34.620000000000000 -83.050000000000000 16686
Sun Mar 25 00:00:00 GMT 2012 Colton Hare Tulip poplar Liriodendron tulipifera Full Flower 34.620000000000000 -83.050000000000000 16687
Fri Jul 13 00:00:00 GMT 2012 Colton Hare Tulip poplar Liriodendron tulipifera First Ripe Fruit 34.620000000000000 -83.050000000000000 16688
Tue Feb 28 00:00:00 GMT 2012 Colton Hare Tulip poplar Liriodendron tulipifera Full Fruiting 34.620000000000000 -83.050000000000000 16689
Wed Sep 19 00:00:00 GMT 2012 Colton Hare Tulip poplar Liriodendron tulipifera 50% Color 34.620000000000000 -83.050000000000000 16690
Wed Sep 19 00:00:00 GMT 2012 Colton Hare Tulip poplar Liriodendron tulipifera 50% Leaf Fall 34.620000000000000 -83.050000000000000 16691
Tue Sep 11 00:00:00 GMT 2012 andy lee Tulip poplar Liriodendron tulipifera 50% Color 34.600000000000000 -83.100000000000000 16722
Tue Sep 11 00:00:00 GMT 2012 andy lee Tulip poplar Liriodendron tulipifera 50% Leaf Fall 34.600000000000000 -83.100000000000000 16723
Sun Mar 25 00:00:00 GMT 2012 surahdowell Tulip poplar Liriodendron tulipifera First Leaf 34.610000000000000 -83.050000000000000 16712
Thu Sep 13 00:00:00 GMT 2012 surahdowell Tulip poplar Liriodendron tulipifera 50% Color 34.610000000000000 -83.050000000000000 16713
Thu Sep 20 00:00:00 GMT 2012 mari Tulip poplar Liriodendron tulipifera Leaves Unfolding (Late) 35.592100000000000 -84.084200000000000 16731
Fri Sep 28 00:00:00 GMT 2012 mari Tulip poplar Liriodendron tulipifera Leaves Changing Color (Early) 35.592100000000000 -84.084200000000000 16756
Thu Oct 04 00:00:00 GMT 2012 mari Tulip poplar Liriodendron tulipifera Leaves Changing Color (Early) 35.592100000000000 -84.084200000000000 16782
Fri Oct 19 00:00:00 GMT 2012 mari Tulip poplar Liriodendron tulipifera Leaves Dropping (Middle) 35.592100000000000 -84.084200000000000 17038
Fri Nov 02 00:00:00 GMT 2012 mari Tulip poplar Liriodendron tulipifera Leaves Dropping (Late) 35.592100000000000 -84.084200000000000 17449
Sat Mar 17 00:00:00 GMT 2012 srulison Tulip poplar Liriodendron tulipifera First Leaf 37.540000000000000 -75.920000000000000 17485
Sun Nov 11 00:00:00 GMT 2012 PBBtest1107 Tulip poplar Liriodendron tulipifera Leaves Dropping (Late) 40.000000000000000 -105.000000000000000 17521
Sat Nov 17 00:00:00 GMT 2012 jos7 Tulip poplar Liriodendron tulipifera Leaves Dropping (Middle) 47.609900000000000 -122.180000000000000 17547
Sat Dec 01 00:00:00 GMT 2012 jos7 Tulip poplar Liriodendron tulipifera Leaves Dropping (Late) 47.609900000000000 -122.180000000000000 17577
Thu Oct 18 00:00:00 GMT 2012 tuckerasso Tulip poplar Liriodendron tulipifera 50% Color 37.231600000000000 -76.663600000000000 17654
Sat Dec 01 00:00:00 GMT 2012 tuckerasso Tulip poplar Liriodendron tulipifera 50% Leaf Fall 37.231600000000000 -76.663600000000000 17655
Fri Mar 16 00:00:00 GMT 2012 SusannahPrindle Tulip poplar Liriodendron tulipifera First Leaf 39.096700000000000 -77.023900000000000 17710
Tue Mar 20 00:00:00 GMT 2012 SusannahPrindle Tulip poplar Liriodendron tulipifera All Leaves Unfolded 39.096700000000000 -77.023900000000000 17711
Tue Apr 17 00:00:00 GMT 2012 SusannahPrindle Tulip poplar Liriodendron tulipifera First Flower 39.096700000000000 -77.023900000000000 17712
Thu Apr 26 00:00:00 GMT 2012 SusannahPrindle Tulip poplar Liriodendron tulipifera Full Flower 39.096700000000000 -77.023900000000000 17713
Sun Oct 21 00:00:00 GMT 2012 SusannahPrindle Tulip poplar Liriodendron tulipifera 50% Color 39.096700000000000 -77.023900000000000 17714
Sat Nov 03 00:00:00 GMT 2012 SusannahPrindle Tulip poplar Liriodendron tulipifera 50% Leaf Fall 39.096700000000000 -77.023900000000000 17715
Sat Mar 17 00:00:00 GMT 2012 SusannahPrindle Tulip poplar Liriodendron tulipifera First Leaf 39.066800000000000 -76.996900000000000 17727
Sat Mar 24 00:00:00 GMT 2012 SusannahPrindle Tulip poplar Liriodendron tulipifera All Leaves Unfolded 39.066800000000000 -76.996900000000000 17728
Sun Apr 22 00:00:00 GMT 2012 SusannahPrindle Tulip poplar Liriodendron tulipifera First Flower 39.066800000000000 -76.996900000000000 17729
Sun Apr 29 00:00:00 GMT 2012 SusannahPrindle Tulip poplar Liriodendron tulipifera Full Flower 39.066800000000000 -76.996900000000000 17730
Sat Oct 27 00:00:00 GMT 2012 SusannahPrindle Tulip poplar Liriodendron tulipifera Full Fruiting 39.066800000000000 -76.996900000000000 17731
Fri Oct 26 00:00:00 GMT 2012 SusannahPrindle Tulip poplar Liriodendron tulipifera 50% Leaf Fall 39.066800000000000 -76.996900000000000 17732
Wed Mar 27 00:00:00 GMT 2013 ptuley Tulip poplar Liriodendron tulipifera Leaves Unfolding (Early) 34.504500000000000 -97.119500000000000 18365
Wed Apr 03 00:00:00 GMT 2013 muziguo Tulip poplar Liriodendron tulipifera Leaves Unfolding (Early) 39.165300000000000 -86.526400000000000 18484
Mon Apr 08 00:00:00 GMT 2013 adfitzgerald@woodlawnschool.org_Env_Studies_2013_reporter9 Tulip poplar Liriodendron tulipifera First Leaf 35.543200000000000 -80.847300000000000 18789
Thu Apr 11 00:00:00 GMT 2013 adfitzgerald@woodlawnschool.org_Env_Studies_2013_reporter9 Tulip poplar Liriodendron tulipifera All Leaves Unfolded 35.543200000000000 -80.847300000000000 18790
Tue Jan 08 00:00:00 GMT 2013 adfitzgerald@woodlawnschool.org_Env_Studies_2013_reporter9 Tulip poplar Liriodendron tulipifera Bud Burst 35.543200000000000 -80.847300000000000 18807
Tue Jan 08 00:00:00 GMT 2013 adfitzgerald@woodlawnschool.org_Env_Studies_2013_reporter1 Tulip poplar Liriodendron tulipifera Bud Burst 35.543200000000000 -80.847300000000000 18811
Mon Apr 08 00:00:00 GMT 2013 adfitzgerald@woodlawnschool.org_Env_Studies_2013_reporter1 Tulip poplar Liriodendron tulipifera First Leaf 35.543200000000000 -80.847300000000000 18812
Thu Apr 11 00:00:00 GMT 2013 adfitzgerald@woodlawnschool.org_Env_Studies_2013_reporter1 Tulip poplar Liriodendron tulipifera All Leaves Unfolded 35.543200000000000 -80.847300000000000 18813
Mon Apr 08 00:00:00 GMT 2013 adfitzgerald@woodlawnschool.org_Env_Studies_2013_reporter10 Tulip poplar Liriodendron tulipifera Bud Burst 35.543200000000000 -80.847300000000000 18819
Thu Apr 11 00:00:00 GMT 2013 adfitzgerald@woodlawnschool.org_Env_Studies_2013_reporter10 Tulip poplar Liriodendron tulipifera First Leaf 35.543200000000000 -80.847300000000000 18820
Sat Apr 13 00:00:00 GMT 2013 jerribitner Tulip poplar Liriodendron tulipifera Bud Burst 40.018100000000000 -76.880000000000000 18921
Sat Apr 13 00:00:00 GMT 2013 ncmns Tulip poplar Liriodendron tulipifera Leaves Unfolding (Middle) 35.811700000000000 -78.713900000000000 19377
Sat Mar 30 00:00:00 GMT 2013 ncmns Tulip poplar Liriodendron tulipifera Leaves Unfolding (Early) 35.811700000000000 -78.713900000000000 19370
Sat Apr 27 00:00:00 GMT 2013 ncmns Tulip poplar Liriodendron tulipifera Leaves Unfolding (Late) 35.811700000000000 -78.713900000000000 19386
Tue Apr 09 00:00:00 GMT 2013 Dennis2sheds Tulip poplar Liriodendron tulipifera Bud Burst 34.717100000000000 -83.980100000000000 19652
Tue Apr 16 00:00:00 GMT 2013 Dennis2sheds Tulip poplar Liriodendron tulipifera First Leaf 34.717100000000000 -83.980100000000000 19653
Tue May 07 00:00:00 GMT 2013 bmatthews Tulip poplar Liriodendron tulipifera Flowers (Middle) 36.147500000000000 -86.775200000000000 20004
Tue May 07 00:00:00 GMT 2013 bmatthews Tulip poplar Liriodendron tulipifera Full Flower 36.146600000000000 -86.775400000000000 20005
Thu May 09 00:00:00 GMT 2013 jerribitner Tulip poplar Liriodendron tulipifera All Leaves Unfolded 40.018100000000000 -76.880000000000000 20157
Wed Apr 10 00:00:00 GMT 2013 katherinefogarty@comcast.net_Ms._Fogarty's_Env_Sci_reporter4 Tulip poplar Liriodendron tulipifera Bud Burst 41.316200000000000 -71.084500000000000 20324
Wed May 01 00:00:00 GMT 2013 katherinefogarty@comcast.net_Ms._Fogarty's_Env_Sci_reporter4 Tulip poplar Liriodendron tulipifera First Leaf 41.316200000000000 -71.084500000000000 20325
Fri Nov 16 00:00:00 GMT 2012 katherinefogarty@comcast.net_Ms._Fogarty's_Env_Sci_reporter4 Tulip poplar Liriodendron tulipifera All Leaves Unfolded 41.316200000000000 -71.084500000000000 20326
Mon May 06 00:00:00 GMT 2013 katherinefogarty@comcast.net_Ms._Fogarty's_Env_Sci_reporter4 Tulip poplar Liriodendron tulipifera First Flower 41.316200000000000 -71.084500000000000 20327
Mon May 13 00:00:00 GMT 2013 katherinefogarty@comcast.net_Ms._Fogarty's_Env_Sci_reporter4 Tulip poplar Liriodendron tulipifera Full Flower 41.316200000000000 -71.084500000000000 20328
Tue Oct 23 00:00:00 GMT 2012 katherinefogarty@comcast.net_Ms._Fogarty's_Env_Sci_reporter4 Tulip poplar Liriodendron tulipifera 50% Color 41.316200000000000 -71.084500000000000 20329
Fri Nov 02 00:00:00 GMT 2012 katherinefogarty@comcast.net_Ms._Fogarty's_Env_Sci_reporter4 Tulip poplar Liriodendron tulipifera 50% Leaf Fall 41.316200000000000 -71.084500000000000 20330
Fri May 24 00:00:00 GMT 2013 jerribitner Tulip poplar Liriodendron tulipifera Full Flower 40.018100000000000 -76.880000000000000 20722
Wed Apr 10 00:00:00 GMT 2013 Angelyn Tulip poplar Liriodendron tulipifera Bud Burst 35.619100000000000 -82.765100000000000 20752
Wed Apr 17 00:00:00 GMT 2013 Angelyn Tulip poplar Liriodendron tulipifera First Leaf 35.619100000000000 -82.765100000000000 20753
Thu Apr 25 00:00:00 GMT 2013 Angelyn Tulip poplar Liriodendron tulipifera All Leaves Unfolded 35.619100000000000 -82.765100000000000 20754
Mon May 20 00:00:00 GMT 2013 Angelyn Tulip poplar Liriodendron tulipifera Full Flower 35.619100000000000 -82.765100000000000 20755
Mon Jul 01 00:00:00 GMT 2013 plegendre Tulip poplar Liriodendron tulipifera Leaves Unfolding (Late) 41.709700000000000 -70.167600000000000 21435
Mon Jul 01 00:00:00 GMT 2013 plegendre Tulip poplar Liriodendron tulipifera Leaves Unfolding (Late) 41.709700000000000 -70.167600000000000 21436
Sun Jul 14 00:00:00 GMT 2013 clapp Tulip poplar Liriodendron tulipifera Fruit (Middle) 35.381800000000000 -83.196500000000000 21538
Sat Mar 30 00:00:00 GMT 2013 reinsteinwoods Tulip poplar Liriodendron tulipifera Bud Burst 42.886600000000000 -78.718100000000000 21586
Sat Apr 27 00:00:00 GMT 2013 reinsteinwoods Tulip poplar Liriodendron tulipifera First Leaf 42.886600000000000 -78.718100000000000 21587
Sun May 05 00:00:00 GMT 2013 reinsteinwoods Tulip poplar Liriodendron tulipifera All Leaves Unfolded 42.886600000000000 -78.718100000000000 21588
Mon Apr 08 00:00:00 GMT 2013 SusannahPrindle Tulip poplar Liriodendron tulipifera First Leaf 39.096700000000000 -77.023900000000000 21754
Wed Apr 10 00:00:00 GMT 2013 SusannahPrindle Tulip poplar Liriodendron tulipifera All Leaves Unfolded 39.096700000000000 -77.023900000000000 21755
Fri May 17 00:00:00 GMT 2013 SusannahPrindle Tulip poplar Liriodendron tulipifera First Flower 39.096700000000000 -77.023900000000000 21756
Wed May 22 00:00:00 GMT 2013 SusannahPrindle Tulip poplar Liriodendron tulipifera Full Flower 39.096700000000000 -77.023900000000000 21757
Tue Apr 09 00:00:00 GMT 2013 SusannahPrindle Tulip poplar Liriodendron tulipifera First Leaf 39.066800000000000 -76.996900000000000 21834
Thu Apr 11 00:00:00 GMT 2013 SusannahPrindle Tulip poplar Liriodendron tulipifera All Leaves Unfolded 39.066800000000000 -76.996900000000000 21835
Sun May 19 00:00:00 GMT 2013 SusannahPrindle Tulip poplar Liriodendron tulipifera First Flower 39.066800000000000 -76.996900000000000 21836
Sun May 19 00:00:00 GMT 2013 SusannahPrindle Tulip poplar Liriodendron tulipifera Full Flower 39.066800000000000 -76.996900000000000 21837
Mon Oct 07 00:00:00 GMT 2013 Susan Tulip poplar Liriodendron tulipifera Leaves Dropping (Late) 37.522400000000000 -77.947200000000000 22513
Wed Sep 04 00:00:00 GMT 2013 marcepat Tulip poplar Liriodendron tulipifera 50% Color 39.168500000000000 -86.529800000000000 23033
Wed Nov 06 00:00:00 GMT 2013 marcepat Tulip poplar Liriodendron tulipifera 50% Leaf Fall 39.168500000000000 -86.529800000000000 23034
Sat Nov 02 00:00:00 GMT 2013 ncmns Tulip poplar Liriodendron tulipifera Leaves Changing Color (Middle) 35.811700000000000 -78.713900000000000 23055
Sat Oct 12 00:00:00 GMT 2013 ncmns Tulip poplar Liriodendron tulipifera Leaves Dropping (Early) 35.811700000000000 -78.713900000000000 23060
Sat Nov 09 00:00:00 GMT 2013 bberry Tulip poplar Liriodendron tulipifera 50% Leaf Fall 40.766600000000000 -73.974900000000000 23144
Sun Sep 15 00:00:00 GMT 2013 ebyeoman Tulip poplar Liriodendron tulipifera 50% Color 39.161500000000000 -86.480700000000000 23604
Sun Oct 20 00:00:00 GMT 2013 ebyeoman Tulip poplar Liriodendron tulipifera 50% Leaf Fall 39.161500000000000 -86.480700000000000 23605
Tue Sep 03 00:00:00 GMT 2013 simonejones Tulip poplar Liriodendron tulipifera Bud Burst 39.170800000000000 -86.512400000000000 23653
Thu Oct 24 00:00:00 GMT 2013 simonejones Tulip poplar Liriodendron tulipifera 50% Color 39.170800000000000 -86.512400000000000 23654
Sun Oct 27 00:00:00 GMT 2013 simonejones Tulip poplar Liriodendron tulipifera 50% Leaf Fall 39.170800000000000 -86.512400000000000 23655
Sun Oct 06 00:00:00 GMT 2013 robinv1_Washington_College_reporter7 Tulip poplar Liriodendron tulipifera Bud Burst 39.219200000000000 -76.069600000000000 24095
Wed Oct 30 00:00:00 GMT 2013 robinv1_Washington_College_reporter7 Tulip poplar Liriodendron tulipifera 50% Color 39.219200000000000 -76.069600000000000 24096
Wed Oct 30 00:00:00 GMT 2013 robinv1_Washington_College_reporter7 Tulip poplar Liriodendron tulipifera 50% Leaf Fall 39.219200000000000 -76.069600000000000 24097
Mon Oct 28 00:00:00 GMT 2013 robinv1_Washington_College_reporter30 Tulip poplar Liriodendron tulipifera 50% Color 39.219200000000000 -76.069600000000000 24183
Mon Nov 18 00:00:00 GMT 2013 robinv1_Washington_College_reporter30 Tulip poplar Liriodendron tulipifera 50% Leaf Fall 39.219200000000000 -76.069600000000000 24184
Mon Oct 14 00:00:00 GMT 2013 robinv1_Washington_College_reporter22 Tulip poplar Liriodendron tulipifera 50% Color 39.219200000000000 -76.069600000000000 24164
Mon Nov 04 00:00:00 GMT 2013 robinv1_Washington_College_reporter22 Tulip poplar Liriodendron tulipifera 50% Leaf Fall 39.219200000000000 -76.069600000000000 24165
Mon Mar 25 00:00:00 GMT 2013 tuckerasso Tulip poplar Liriodendron tulipifera First Leaf 37.231600000000000 -76.663600000000000 24599
Thu Apr 04 00:00:00 GMT 2013 tuckerasso Tulip poplar Liriodendron tulipifera All Leaves Unfolded 37.231600000000000 -76.663600000000000 24600
Sat Apr 13 00:00:00 GMT 2013 tuckerasso Tulip poplar Liriodendron tulipifera First Flower 37.231600000000000 -76.663600000000000 24601
Sun Apr 28 00:00:00 GMT 2013 tuckerasso Tulip poplar Liriodendron tulipifera Full Flower 37.231600000000000 -76.663600000000000 24602
Tue Sep 10 00:00:00 GMT 2013 tuckerasso Tulip poplar Liriodendron tulipifera 50% Color 37.231600000000000 -76.663600000000000 24603
Mon Nov 25 00:00:00 GMT 2013 tuckerasso Tulip poplar Liriodendron tulipifera 50% Leaf Fall 37.231600000000000 -76.663600000000000 24604

*All downloadable materials require the free Adobe Reader.